1484643600.01,37017,4.94,73258.3,-13.59,-26.55,-27.19,0,*65
1484643601.31,37018,4.94,73256.0,-13.57,-26.29,-26.97,0,*68
1484643602.59,37019,4.94,73256.0,-13.57,-26.29,-26.87,0,*68
1484643603.83,37020,4.94,73256.0,-13.59,-26.55,-27.07,0,*6E
1484643605.08,37021,4.94,73256.8,-13.57,-26.39,-27.03,0,*6F
1484643606.3,37022,4.94,73258.8,-13.59,-26.39,-27.03,0,*62
1484643607.55,37023,4.94,73258.8,-13.59,-26.61,-27.35,0,*6B
1484643608.76,37024,4.94,73254.3,-13.59,-26.45,-27.07,0,*6B
1484643609.99,37025,4.94,73252.0,-13.59,-26.39,-27.03,0,*65
1484643611.21,37026,4.94,73252.5,-13.59,-26.39,-27.03,0,*66
1484643612.48,37027,4.94,73258.8,-13.57,-26.55,-27.29,0,*6B
1484643613.78,37028,4.94,73252.5,-13.57,-26.55,-27.19,0,*67
1484643615.02,37029,4.94,73254.0,-13.59,-26.61,-27.19,0,*6F
1484643616.32,37030,4.94,73254.5,-13.57,-26.33,-26.81,0,*6E
1484643617.57,37031,4.94,73254.3,-13.57,-26.49,-27.13,0,*68
1484643618.85,37032,4.94,73252.3,-13.59,-26.33,-26.93,0,*61
1484643620.11,37033,4.94,73256.5,-13.59,-26.55,-27.19,0,*63
1484643621.38,37034,4.94,73252.3,-13.59,-26.71,-27.35,0,*6C
1484643622.66,37035,4.94,73254.0,-13.57,-26.65,-27.19,0,*68
1484643623.9,37036,4.94,73252.8,-13.59,-26.61,-27.39,0,*63
1484643625.14,37037,4.94,73254.8,-13.59,-26.61,-27.23,0,*69
1484643626.39,37038,4.94,73258.8,-13.59,-26.55,-27.07,0,*67
1484643627.63,37039,4.94,73252.8,-13.59,-26.93,-27.55,0,*6B
1484643628.89,37040,4.94,73252.0,-13.61,-26.87,-27.39,0,*61
1484643630.18,37041,4.94,73258.5,-13.61,-26.71,-27.23,0,*62
1484643631.4,37042,4.94,73254.8,-13.59,-26.45,-27.03,0,*6F
1484643632.66,37043,4.94,73254.8,-13.57,-26.49,-27.29,0,*64
1484643633.92,37044,4.94,73250.3,-13.61,-26.61,-27.23,0,*66
1484643635.21,37045,4.94,73250.5,-13.61,-26.71,-27.35,0,*61
1484643636.49,37046,4.94,73252.8,-13.61,-26.61,-27.35,0,*63
1484643637.73,37047,4.94,73254.3,-13.59,-26.61,-27.23,0,*6E
1484643638.97,37048,4.94,73252.3,-13.59,-26.61,-27.35,0,*66
1484643640.22,37049,4.94,73248.3,-13.61,-26.45,-27.07,0,*6B
1484643641.5,37050,4.94,73250.8,-13.61,-26.55,-27.19,0,*6D
1484643642.75,37051,4.94,73246.8,-13.63,-26.61,-27.23,0,*60
1484643643.99,37052,4.94,73250.0,-13.61,-26.45,-27.03,0,*65
1484643645.23,37053,4.94,73250.5,-13.61,-26.45,-27.03,0,*64
1484643646.5,37054,4.94,73248.8,-13.61,-26.39,-26.93,0,*60
1484643647.77,37055,4.94,73254.0,-13.61,-26.33,-26.87,0,*6E
1484643649.06,37056,4.94,73248.0,-13.61,-26.55,-27.23,0,*62
1484643650.3,37057,4.94,73254.8,-13.61,-26.45,-27.07,0,*64
1484643651.55,37058,4.94,73252.8,-13.59,-26.61,-27.35,0,*67
1484643652.82,37059,4.94,73254.0,-13.61,-26.87,-27.35,0,*65
1484643654.08,37060,4.94,73258.8,-13.61,-26.61,-27.23,0,*60
1484643655.35,37061,4.94,73256.8,-13.61,-26.61,-27.23,0,*61
1484643656.65,37062,4.94,73254.8,-13.61,-26.33,-26.93,0,*6F
1484643657.91,37063,4.94,73252.3,-13.61,-26.39,-26.93,0,*64
1484643659.16,37064,4.94,73252.8,-13.61,-26.45,-27.03,0,*60
1484643660.4,37065,4.94,73254.0,-13.61,-26.39,-27.03,0,*6A
1484643661.69,37066,4.94,73252.8,-13.61,-26.71,-27.39,0,*6C
1484643662.96,37067,4.94,73252.8,-13.61,-26.61,-27.19,0,*6E
1484643664.18,37068,4.94,73254.3,-13.63,-26.45,-27.07,0,*6A
1484643665.42,37069,4.94,73256.0,-13.61,-26.45,-27.03,0,*6D
1484643666.69,37070,4.94,73256.3,-13.61,-26.39,-26.93,0,*66
1484643667.98,37071,4.94,73252.8,-13.61,-26.55,-27.23,0,*67
1484643669.19,37072,4.94,73250.3,-13.63,-26.61,-27.13,0,*62
1484643670.45,37073,4.94,73252.5,-13.61,-26.55,-27.07,0,*63
1484643671.7,37074,4.94,73250.8,-13.63,-26.49,-26.97,0,*63
1484643672.97,37075,4.94,73254.0,-13.61,-26.39,-26.93,0,*63
1484643674.21,37076,4.94,73252.5,-13.61,-26.45,-27.07,0,*67
1484643675.5,37077,4.94,73250.5,-13.61,-26.55,-27.19,0,*68
1484643676.76,37078,4.94,73252.5,-13.61,-26.55,-27.07,0,*68
1484643678.03,37079,4.94,73254.0,-13.61,-26.55,-27.03,0,*6D
1484643679.3,37080,4.94,73256.0,-13.61,-26.39,-26.93,0,*69
1484643680.57,37081,4.94,73256.5,-13.61,-26.17,-26.87,0,*61
1484643681.83,37082,4.94,73258.0,-13.61,-26.23,-26.77,0,*6A
1484643683.07,37083,4.94,73254.8,-13.59,-26.23,-26.77,0,*60
1484643684.32,37084,4.94,73254.5,-13.59,-26.33,-26.87,0,*69
1484643685.61,37085,4.94,73252.5,-13.61,-26.33,-26.93,0,*66
1484643686.89,37086,4.94,73254.8,-13.59,-26.33,-26.93,0,*6E
1484643688.16,37087,4.94,73252.5,-13.59,-26.33,-26.93,0,*6F
1484643689.38,37088,4.94,73252.8,-13.59,-26.45,-27.07,0,*6D
1484643690.64,37089,4.94,73252.5,-13.59,-26.55,-27.19,0,*62
1484643691.92,37090,4.94,73252.8,-13.59,-26.33,-26.93,0,*69
1484643693.14,37091,4.94,73252.0,-13.59,-26.45,-27.03,0,*61
1484643694.38,37092,4.94,73256.0,-13.59,-26.55,-27.07,0,*67
1484643695.62,37093,4.94,73256.8,-13.59,-26.55,-27.07,0,*66
1484643696.88,37094,4.94,73252.5,-13.59,-26.55,-27.19,0,*6E
1484643698.13,37095,4.94,73252.8,-13.59,-26.39,-26.93,0,*66
1484643699.38,37096,4.94,73252.5,-13.59,-26.33,-26.87,0,*6A
1484643700.62,37097,4.94,73252.0,-13.59,-26.17,-26.87,0,*6D
1484643701.92,37098,4.94,73252.0,-13.57,-26.17,-26.81,0,*6A
1484643703.17,37099,4.94,73252.3,-13.59,-26.39,-26.93,0,*6A
1484643704.46,37100,4.94,73254.3,-13.57,-26.13,-26.71,0,*61
1484643705.74,37101,4.94,73252.5,-13.59,-26.33,-26.93,0,*60
1484643707.04,37102,4.94,73256.5,-13.57,-26.33,-26.97,0,*69
1484643708.26,37103,4.94,73258.5,-13.59,-26.45,-27.03,0,*6B
1484643709.56,37104,4.94,73254.5,-13.57,-26.29,-26.81,0,*63
1484643710.83,37105,4.94,73256.8,-13.59,-26.17,-26.71,0,*6E
1484643712.14,37106,4.94,73258.8,-13.57,-26.33,-26.97,0,*6D
1484643713.39,37107,4.94,73252.8,-13.57,-26.39,-26.87,0,*67
1484643714.66,37108,4.94,73254.8,-13.59,-26.33,-26.93,0,*69
1484643715.96,37109,4.94,73252.3,-13.57,-26.13,-26.81,0,*67
1484643717.24,37110,4.94,73256.5,-13.57,-26.33,-27.07,0,*62
1484643718.49,37111,4.94,73256.3,-13.57,-26.49,-27.03,0,*6A
1484643719.71,37112,4.94,73256.8,-13.59,-26.45,-27.07,0,*6F
1484643720.95,37113,4.94,73252.8,-13.59,-26.39,-26.93,0,*69
1484643722.23,37114,4.94,73256.0,-13.57,-26.33,-26.87,0,*6F
1484643723.51,37115,4.94,73258.0,-13.57,-26.29,-26.87,0,*65
1484643724.72,37116,4.94,73258.8,-13.59,-26.45,-27.07,0,*6B
1484643725.97,37117,4.94,73258.0,-13.57,-26.49,-27.13,0,*6D
1484643727.25,37118,4.94,73258.5,-13.57,-26.39,-26.97,0,*68
1484643728.5,37119,4.94,73256.5,-13.57,-26.49,-27.13,0,*63
1484643729.76,37120,4.94,73258.5,-13.61,-26.39,-26.93,0,*62
1484643731.01,37121,4.94,73258.5,-13.59,-26.33,-26.87,0,*67
1484643732.28,37122,4.94,73258.8,-13.59,-26.17,-26.71,0,*6B
1484643733.58,37123,4.94,73256.8,-13.57,-25.97,-26.71,0,*6F
1484643734.82,37124,4.94,73258.3,-13.59,-26.23,-26.77,0,*6C
1484643736.11,37125,4.94,73256.8,-13.57,-26.13,-26.71,0,*66
1484643737.39,37126,4.94,73260.3,-13.59,-26.17,-26.77,0,*69
1484643738.63,37127,4.94,73254.8,-13.57,-26.39,-26.87,0,*65
1484643739.94,37128,4.94,73254.8,-13.57,-26.17,-26.81,0,*60
1484643741.24,37129,4.94,73254.3,-13.57,-26.13,-26.81,0,*65
1484643742.51,37130,4.94,73256.5,-13.57,-26.29,-26.87,0,*62
1484643743.78,37131,4.94,73252.3,-13.57,-26.29,-26.87,0,*63
1484643745.03,37132,4.94,73252.3,-13.57,-26.39,-27.03,0,*6C
1484643746.29,37133,4.94,73254.5,-13.57,-26.49,-27.03,0,*6A
1484643747.54,37134,4.94,73254.5,-13.57,-26.39,-27.03,0,*6A
1484643748.81,37135,4.94,73256.5,-13.57,-26.29,-26.87,0,*67
1484643750.12,37136,4.94,73262.5,-13.57,-26.33,-26.81,0,*69
1484643751.42,37137,4.94,73258.3,-13.57,-26.13,-26.81,0,*6A
1484643752.63,37138,4.94,73256.3,-13.59,-26.23,-26.87,0,*6E
1484643753.93,37139,4.94,73256.3,-13.57,-26.13,-26.81,0,*64
1484643755.23,37140,4.94,73260.0,-13.57,-26.17,-26.81,0,*6E
1484643756.5,37141,4.94,73258.8,-13.57,-26.29,-26.87,0,*64
1484643757.75,37142,4.94,73258.0,-13.57,-26.39,-27.03,0,*6B
1484643759.01,37143,4.94,73252.8,-13.57,-26.39,-27.03,0,*6A
1484643760.31,37144,4.94,73256.8,-13.57,-26.33,-26.81,0,*6C
1484643761.59,37145,4.94,73258.3,-13.57,-26.33,-27.03,0,*66
1484643762.87,37146,4.94,73256.8,-13.57,-26.39,-26.97,0,*63
1484643764.15,37147,4.94,73258.0,-13.57,-26.39,-26.97,0,*62
1484643765.4,37148,4.94,73256.8,-13.57,-26.39,-27.03,0,*61
1484643766.7,37149,4.94,73256.0,-13.57,-26.17,-26.81,0,*67
1484643767.97,37150,4.94,73258.8,-13.57,-26.49,-26.97,0,*63
1484643769.22,37151,4.94,73258.5,-13.59,-26.55,-27.07,0,*69
1484643770.51,37152,4.94,73260.5,-13.57,-26.55,-27.19,0,*6B
1484643771.76,37153,4.94,73262.3,-13.59,-26.33,-26.87,0,*62
1484643773.04,37154,4.94,73258.0,-13.57,-26.33,-26.87,0,*6B
1484643774.34,37155,4.94,73258.5,-13.57,-26.17,-26.93,0,*69
1484643775.58,37156,4.94,73262.0,-13.59,-26.17,-26.87,0,*61
1484643776.86,37157,4.94,73262.8,-13.59,-26.33,-26.77,0,*69
1484643778.13,37158,4.94,73264.5,-13.57,-26.13,-26.65,0,*69
1484643779.43,37159,4.94,73258.5,-13.57,-26.13,-26.71,0,*6D
1484643780.7,37160,4.94,73252.5,-13.57,-26.29,-26.87,0,*67
1484643781.98,37161,4.94,73256.0,-13.57,-26.39,-26.97,0,*66
1484643783.28,37162,4.94,73258.5,-13.57,-26.29,-26.81,0,*63
1484643784.55,37163,4.94,73258.3,-13.57,-26.33,-26.87,0,*6F
1484643785.81,37164,4.94,73256.0,-13.57,-26.49,-27.03,0,*68
1484643787.09,37165,4.94,73260.0,-13.57,-26.33,-26.87,0,*69
1484643788.39,37166,4.94,73258.8,-13.57,-26.29,-26.81,0,*67
1484643789.68,37167,4.94,73260.3,-13.57,-26.13,-26.71,0,*60
1484643790.98,37168,4.94,73260.8,-13.57,-26.17,-26.81,0,*64
1484643792.28,37169,4.94,73260.5,-13.57,-26.13,-26.71,0,*6E
1484643793.58,37170,4.94,73256.3,-13.57,-25.97,-26.71,0,*69
1484643794.83,37171,4.94,73256.5,-13.57,-26.03,-26.49,0,*6D
1484643796.12,37172,4.94,73260.8,-13.57,-26.13,-26.71,0,*64
1484643797.42,37173,4.94,73258.8,-13.57,-26.13,-26.71,0,*65
1484643798.72,37174,4.94,73256.8,-13.57,-25.97,-26.55,0,*6B
1484643799.99,37175,4.94,73252.5,-13.57,-26.03,-26.71,0,*62
1484643801.27,37176,4.94,73256.5,-13.57,-25.97,-26.65,0,*6A
1484643802.54,37177,4.94,73262.0,-13.55,-26.17,-26.81,0,*68
1484643803.81,37178,4.94,73260.3,-13.55,-26.33,-26.97,0,*66
1484643805.08,37179,4.94,73258.5,-13.55,-26.33,-26.97,0,*67
1484643806.35,37180,4.94,73258.3,-13.55,-26.29,-26.81,0,*6D
1484643807.62,37181,4.94,73258.5,-13.55,-26.29,-26.81,0,*6C
1484643808.88,37182,4.94,73256.0,-13.53,-26.45,-26.97,0,*64
1484643810.16,37183,4.94,73256.0,-13.55,-26.33,-26.97,0,*62
1484643811.4,37184,4.94,73256.0,-13.55,-26.29,-26.87,0,*6F
1484643812.67,37185,4.94,73252.5,-13.55,-26.17,-26.81,0,*65
1484643813.9,37186,4.94,73258.3,-13.53,-25.91,-26.61,0,*63
1484643815.17,37187,4.94,73254.8,-13.53,-25.97,-26.65,0,*60
1484643816.44,37188,4.94,73256.5,-13.55,-26.29,-26.81,0,*65
1484643817.73,37189,4.94,73258.3,-13.53,-26.17,-26.81,0,*6F
1484643819.0,37190,4.94,73264.0,-13.55,-26.13,-26.81,0,*65
1484643820.24,37191,4.94,73262.0,-13.55,-25.97,-26.65,0,*61
1484643821.53,37192,4.94,73262.3,-13.53,-25.97,-26.71,0,*61
1484643822.79,37193,4.94,73258.0,-13.55,-26.13,-26.71,0,*69
1484643824.06,37194,4.94,73256.0,-13.55,-26.13,-26.71,0,*6E
1484643825.32,37195,4.94,73256.8,-13.53,-26.23,-26.81,0,*65
1484643826.61,37196,4.94,73258.8,-13.53,-26.29,-26.81,0,*6C
1484643827.85,37197,4.94,73258.0,-13.55,-26.29,-26.87,0,*6D
1484643829.09,37198,4.94,73262.3,-13.55,-26.29,-26.87,0,*62
1484643830.33,37199,4.94,73262.8,-13.55,-26.29,-26.87,0,*63
1484643831.59,37200,4.94,73260.5,-13.53,-26.23,-26.81,0,*6A
1484643832.86,37201,4.94,73260.3,-13.55,-26.17,-26.81,0,*6A
1484643834.1,37202,4.94,73260.5,-13.53,-25.91,-26.65,0,*68
1484643835.34,37203,4.94,73260.5,-13.55,-26.03,-26.71,0,*62
1484643836.58,37204,4.94,73262.0,-13.53,-26.07,-26.65,0,*62
1484643837.85,37205,4.94,73260.8,-13.53,-25.97,-26.61,0,*6D
1484643839.11,37206,4.94,73264.8,-13.55,-26.13,-26.71,0,*66
1484643840.41,37207,4.94,73270.5,-13.53,-26.13,-26.77,0,*67
1484643841.64,37208,4.94,73272.3,-13.53,-25.91,-26.65,0,*62
1484643842.91,37209,4.94,73266.0,-13.53,-25.75,-26.45,0,*6B
1484643844.18,37210,4.94,73266.8,-13.53,-25.75,-26.45,0,*63
1484643845.41,37211,4.94,73268.0,-13.49,-25.91,-26.61,0,*65
1484643846.71,37212,4.94,73266.8,-13.49,-26.13,-26.77,0,*68
1484643848.01,37213,4.94,73272.8,-13.49,-26.33,-26.97,0,*65
1484643849.28,37214,4.94,73270.5,-13.49,-26.49,-27.23,0,*61
1484643850.58,37215,4.94,73270.3,-13.49,-26.33,-26.97,0,*63
1484643851.81,37216,4.94,73262.0,-13.53,-26.45,-27.13,0,*67
1484643853.11,37217,4.94,73262.3,-13.53,-26.13,-26.81,0,*6F
1484643854.35,37218,4.94,73260.3,-13.55,-26.17,-26.87,0,*64
1484643855.59,37219,4.94,73266.0,-13.53,-25.91,-26.61,0,*66
1484643856.85,37220,4.94,73258.5,-13.49,-25.97,-26.65,0,*65
1484643858.12,37221,4.94,73262.5,-13.49,-26.07,-26.81,0,*64
1484643859.39,37222,4.94,73264.8,-13.49,-26.07,-26.77,0,*6E
1484643860.64,37223,4.94,73256.0,-13.47,-26.39,-26.97,0,*62
1484643861.91,37224,4.94,73256.5,-13.49,-26.33,-27.07,0,*69
1484643863.2,37225,4.94,73260.5,-13.49,-26.13,-26.77,0,*6C
1484643864.5,37226,4.94,73266.0,-13.49,-26.13,-26.81,0,*66
1484643865.76,37227,4.94,73266.5,-13.55,-26.13,-26.81,0,*6A
1484643867.0,37228,4.94,73270.3,-13.53,-25.91,-26.65,0,*60
1484643868.26,37229,4.94,73270.0,-13.53,-25.75,-26.49,0,*65
1484643869.53,37230,4.94,73270.8,-13.49,-25.97,-26.65,0,*64
1484643870.77,37231,4.94,73274.5,-13.49,-25.91,-26.65,0,*63
1484643872.03,37232,4.94,73266.8,-13.49,-26.23,-26.81,0,*60
1484643873.3,37233,4.94,73274.8,-13.49,-26.07,-26.77,0,*6E
1484643874.6,37234,4.94,73272.5,-13.49,-26.13,-26.81,0,*65
1484643875.87,37235,4.94,73268.0,-13.49,-25.97,-26.65,0,*61
1484643877.11,37236,4.94,73270.3,-13.47,-26.29,-27.03,0,*6B
1484643878.41,37237,4.94,73266.5,-13.49,-26.33,-26.97,0,*63
1484643879.65,37238,4.94,73264.3,-13.49,-25.65,-26.49,0,*6F
1484643880.89,37239,4.94,73268.5,-13.49,-25.91,-26.65,0,*6B
1484643882.15,37240,4.94,73266.0,-13.49,-25.97,-26.65,0,*63
1484643883.45,37241,4.94,73274.3,-13.49,-26.29,-26.93,0,*6D
1484643884.71,37242,4.94,73268.5,-13.49,-26.07,-26.77,0,*68
1484643885.98,37243,4.94,73268.5,-13.49,-26.07,-26.81,0,*60
1484643887.25,37244,4.94,73274.5,-13.49,-26.07,-26.77,0,*6E
1484643888.52,37245,4.94,73266.8,-13.49,-26.07,-26.77,0,*6F
1484643889.81,37246,4.94,73260.5,-13.49,-26.13,-26.77,0,*69
1484643891.05,37247,4.94,73266.5,-13.47,-25.87,-26.55,0,*68
1484643892.27,37248,4.94,73256.5,-13.47,-25.87,-26.61,0,*60
1484643893.49,37249,4.94,73274.5,-13.47,-26.03,-26.61,0,*6E
1484643894.75,37250,4.94,73262.0,-13.49,-26.23,-26.93,0,*67
1484643896.05,37251,4.94,73260.0,-13.49,-26.29,-26.97,0,*68
1484643897.27,37252,4.94,73260.0,-13.47,-26.07,-26.87,0,*68
1484643898.48,37253,4.94,73252.0,-13.47,-26.07,-26.87,0,*69
1484643899.78,37254,4.94,73252.3,-13.49,-26.13,-26.81,0,*63
1484643901.07,37255,4.94,73256.3,-13.49,-25.97,-26.77,0,*64
1484643902.34,37256,4.94,73264.5,-13.47,-26.13,-26.81,0,*6F
1484643903.59,37257,4.94,73262.0,-13.49,-26.49,-27.29,0,*6C
1484643904.85,37258,4.94,73266.5,-13.49,-26.29,-27.13,0,*6C
1484643906.12,37259,4.94,73262.0,-13.49,-26.07,-26.77,0,*62
1484643907.42,37260,4.94,73266.0,-13.49,-26.33,-26.97,0,*61
1484643908.69,37261,4.94,73270.5,-13.49,-26.49,-27.39,0,*68
1484643909.99,37262,4.94,73268.5,-13.49,-26.77,-27.61,0,*6B
1484643911.23,37263,4.94,73258.8,-13.49,-26.49,-27.13,0,*62
1484643912.53,37264,4.94,73260.5,-13.53,-26.33,-26.97,0,*6E
1484643913.8,37265,4.94,73264.3,-13.49,-26.65,-27.45,0,*69
1484643915.07,37266,4.94,73270.8,-13.49,-26.49,-27.23,0,*64
1484643916.36,37267,4.94,73264.8,-13.53,-26.13,-26.93,0,*6B
1484643917.65,37268,4.94,73254.0,-13.53,-26.13,-26.77,0,*6E
1484643918.94,37269,4.94,73270.0,-13.53,-26.29,-26.93,0,*6C
1484643920.2,37270,4.94,73266.5,-13.53,-26.23,-26.93,0,*6E
1484643921.47,37271,4.94,73260.5,-13.53,-26.29,-27.07,0,*69
1484643922.73,37272,4.94,73256.5,-13.53,-26.45,-27.23,0,*66
1484643923.97,37273,4.94,73266.0,-13.53,-26.45,-27.13,0,*64
1484643925.22,37274,4.94,73260.8,-13.53,-26.49,-27.29,0,*66
1484643926.48,37275,4.94,73262.8,-13.53,-26.23,-26.93,0,*6B
1484643927.74,37276,4.94,73260.3,-13.53,-26.13,-26.87,0,*6E
1484643929.02,37277,4.94,73260.8,-13.53,-26.33,-27.07,0,*64
1484643930.29,37278,4.94,73260.0,-13.53,-26.33,-27.07,0,*6B
1484643931.54,37279,4.94,73270.5,-13.53,-26.49,-27.29,0,*6B
1484643932.78,37280,4.94,73266.8,-13.47,-26.61,-27.45,0,*68
1484643934.02,37281,4.94,73262.3,-13.53,-26.45,-27.13,0,*69
1484643935.28,37282,4.94,73262.8,-13.53,-26.29,-27.07,0,*65
1484643936.58,37283,4.94,73262.8,-13.53,-26.13,-26.77,0,*6B
1484643937.84,37284,4.94,73252.8,-13.55,-26.29,-26.97,0,*6D
1484643939.06,37285,4.94,73264.5,-13.55,-26.65,-27.55,0,*6B
1484643940.3,37286,4.94,73260.8,-13.55,-26.65,-27.45,0,*69
1484643941.56,37287,4.94,73268.0,-13.55,-26.55,-27.45,0,*6B
1484643942.8,37288,4.94,73262.3,-13.55,-26.55,-27.29,0,*6E
1484643944.06,37289,4.94,73260.8,-13.55,-26.55,-27.35,0,*62
1484643945.3,37290,4.94,73256.0,-13.55,-26.39,-27.19,0,*6E
1484643946.54,37291,4.94,73260.0,-13.55,-26.39,-27.19,0,*6F
1484643947.76,37292,4.94,73260.3,-13.55,-26.39,-27.29,0,*6F
1484643949.01,37293,4.94,73256.8,-13.55,-26.49,-27.35,0,*64
1484643950.25,37294,4.94,73268.0,-13.55,-26.33,-27.13,0,*6A
1484643951.46,37295,4.94,73264.0,-13.55,-26.39,-27.13,0,*61
1484643952.73,37296,4.94,73262.0,-13.55,-26.33,-27.19,0,*62
1484643954.0,37297,4.94,73252.5,-13.55,-26.29,-26.97,0,*6F
1484643955.27,37298,4.94,73248.8,-13.53,-26.61,-27.39,0,*6F
1484643956.51,37299,4.94,73252.8,-13.55,-26.81,-27.71,0,*6A
1484643957.77,37300,4.94,73252.0,-13.55,-26.55,-27.35,0,*62
1484643959.08,37301,4.94,73250.3,-13.57,-26.97,-27.83,0,*62
1484643960.35,37302,4.94,73246.0,-13.57,-26.71,-27.67,0,*63
1484643961.62,37303,4.94,73242.0,-13.57,-26.55,-27.51,0,*61
1484643962.89,37304,4.94,73244.3,-13.57,-27.13,-28.05,0,*6B
1484643964.19,37305,4.94,73242.0,-13.57,-27.35,-28.21,0,*68
1484643965.43,37306,4.94,73240.3,-13.59,-27.19,-27.93,0,*6D
1484643966.69,37307,4.94,73240.8,-13.59,-26.71,-27.61,0,*6E
1484643967.91,37308,4.94,73250.0,-13.59,-26.61,-27.51,0,*63
1484643969.15,37309,4.94,73248.8,-13.59,-26.93,-27.77,0,*6B
1484643970.37,37310,4.94,73246.5,-13.59,-26.87,-27.71,0,*60
1484643971.61,37311,4.94,73246.5,-13.61,-26.87,-27.71,0,*6A
1484643972.87,37312,4.94,73248.8,-13.61,-26.93,-27.77,0,*6A
1484643974.14,37313,4.94,73250.5,-13.61,-26.93,-27.77,0,*6B
1484643975.38,37314,4.94,73246.0,-13.61,-26.61,-27.55,0,*61
1484643976.62,37315,4.94,73254.5,-13.61,-27.07,-27.93,0,*6B
1484643977.87,37316,4.94,73256.0,-13.63,-26.93,-27.77,0,*6C
1484643979.11,37317,4.94,73266.5,-13.63,-26.81,-27.77,0,*6E
1484643980.33,37318,4.94,73256.5,-13.65,-26.65,-27.55,0,*6D
1484643981.57,37319,4.94,73250.8,-13.65,-26.45,-27.23,0,*6F
1484643982.82,37320,4.94,73250.0,-13.63,-26.39,-27.23,0,*68
1484643984.09,37321,4.94,73250.8,-13.61,-26.17,-27.13,0,*64
1484643985.34,37322,4.94,73254.0,-13.63,-26.65,-27.61,0,*65
1484643986.55,37323,4.94,73256.5,-13.63,-27.07,-27.93,0,*6C
1484643987.8,37324,4.94,73250.0,-13.65,-26.61,-27.61,0,*61
1484643989.02,37325,4.94,73248.5,-13.65,-26.45,-27.29,0,*6A
1484643990.29,37326,4.94,73248.3,-13.65,-26.81,-27.83,0,*61
1484643991.53,37327,4.94,73252.8,-13.65,-27.67,-28.43,0,*6A
1484643992.77,37328,4.94,73254.0,-13.65,-27.77,-28.79,0,*6D
1484643994.02,37329,4.94,73248.3,-13.67,-27.29,-28.15,0,*6F
1484643995.28,37330,4.94,73250.8,-13.67,-26.87,-27.83,0,*62
1484643996.55,37331,4.94,73250.0,-13.67,-26.81,-27.71,0,*68
1484643997.81,37332,4.94,73252.3,-13.67,-26.71,-27.71,0,*64
1484643999.08,37333,4.94,73248.3,-13.67,-26.65,-27.61,0,*61
1484644000.32,37334,4.94,73250.5,-13.67,-26.65,-27.51,0,*65
1484644001.57,37335,4.94,73248.8,-13.69,-26.49,-27.35,0,*66
1484644002.81,37336,4.94,73254.0,-13.69,-26.81,-27.71,0,*61
1484644004.05,37337,4.94,73258.3,-13.69,-26.55,-27.51,0,*6B
1484644005.29,37338,4.94,73256.5,-13.67,-26.45,-27.29,0,*64
1484644006.5,37339,4.94,73252.8,-13.65,-26.23,-27.13,0,*6E
1484644007.77,37340,4.94,73252.3,-13.69,-26.17,-26.97,0,*66
1484644009.03,37341,4.94,73256.8,-13.71,-26.17,-27.03,0,*62
1484644010.27,37342,4.94,73258.3,-13.69,-26.29,-27.13,0,*64
1484644011.53,37343,4.94,73258.5,-13.67,-26.29,-27.13,0,*6B
1484644012.83,37344,4.94,73258.3,-13.67,-26.13,-26.97,0,*68
1484644014.05,37345,4.94,73256.0,-13.65,-26.45,-27.29,0,*6C
1484644015.29,37346,4.94,73256.3,-13.67,-26.45,-27.29,0,*6D
1484644016.58,37347,4.94,73258.8,-13.67,-26.29,-27.19,0,*65
1484644017.82,37348,4.94,73252.8,-13.65,-26.29,-27.13,0,*62
1484644019.03,37349,4.94,73260.5,-13.65,-26.39,-27.13,0,*62
1484644020.3,37350,4.94,73256.5,-13.67,-26.13,-27.03,0,*61
1484644021.57,37351,4.94,73256.5,-13.65,-26.29,-27.23,0,*69
1484644022.79,37352,4.94,73256.8,-13.65,-26.39,-27.29,0,*61
1484644024.04,37353,4.94,73256.3,-13.67,-26.49,-27.29,0,*65
1484644025.28,37354,4.94,73254.8,-13.67,-26.45,-27.29,0,*6E
1484644026.54,37355,4.94,73258.5,-13.67,-26.29,-27.13,0,*6C
1484644027.79,37356,4.94,73260.5,-13.65,-26.07,-26.97,0,*6C
1484644029.06,37357,4.94,73256.5,-13.67,-26.13,-27.03,0,*66
1484644030.27,37358,4.94,73254.0,-13.65,-26.61,-27.55,0,*6D
1484644031.53,37359,4.94,73258.5,-13.67,-26.55,-27.51,0,*6D
1484644032.75,37360,4.94,73256.0,-13.65,-26.61,-27.55,0,*66
1484644034.01,37361,4.94,73260.8,-13.67,-26.71,-27.67,0,*65
1484644035.27,37362,4.94,73258.3,-13.67,-26.71,-27.71,0,*61
1484644036.52,37363,4.94,73256.3,-13.67,-26.65,-27.51,0,*67
1484644037.78,37364,4.94,73258.8,-13.67,-26.71,-27.71,0,*67
1484644039.05,37365,4.94,73252.3,-13.67,-26.49,-27.35,0,*6D
1484644040.28,37366,4.94,73256.3,-13.69,-26.45,-27.45,0,*6B
1484644041.55,37367,4.94,73250.3,-13.67,-26.49,-27.45,0,*68
1484644042.79,37368,4.94,73252.0,-13.67,-26.65,-27.67,0,*69
1484644044.04,37369,4.94,73252.0,-13.67,-26.65,-27.51,0,*6D
1484644045.28,37370,4.94,73252.0,-13.67,-26.45,-27.29,0,*68
1484644046.52,37371,4.94,73256.3,-13.69,-26.29,-27.13,0,*64
1484644047.77,37372,4.94,73252.5,-13.69,-26.33,-27.29,0,*65
1484644049.04,37373,4.94,73252.3,-13.67,-26.65,-27.61,0,*65
1484644050.31,37374,4.94,73252.3,-13.67,-27.03,-28.05,0,*6E
1484644051.57,37375,4.94,73256.0,-13.67,-26.71,-27.71,0,*67
1484644052.83,37376,4.94,73254.5,-13.71,-26.77,-27.77,0,*63
1484644054.08,37377,4.94,73260.5,-13.69,-26.81,-27.71,0,*64
1484644055.33,37378,4.94,73252.8,-13.71,-26.23,-27.19,0,*64
1484644056.57,37379,4.94,73250.8,-13.71,-26.07,-27.03,0,*68
1484644057.84,37380,4.94,73256.3,-13.69,-25.97,-26.97,0,*61
1484644059.09,37381,4.94,73258.8,-13.69,-26.03,-26.97,0,*6E
1484644060.38,37382,4.94,73258.3,-13.67,-25.97,-26.97,0,*6D
1484644061.68,37383,4.94,73254.8,-13.67,-25.97,-26.97,0,*6C
1484644062.96,37384,4.94,73252.0,-13.67,-26.13,-27.19,0,*63
1484644064.23,37385,4.94,73254.0,-13.67,-26.17,-27.13,0,*6C
1484644065.53,37386,4.94,73258.0,-13.67,-26.33,-27.19,0,*63
1484644066.76,37387,4.94,73254.0,-13.67,-26.45,-27.51,0,*6F
1484644068.01,37388,4.94,73252.5,-13.67,-26.49,-27.51,0,*6C
1484644069.3,37389,4.94,73254.8,-13.67,-26.33,-27.45,0,*65
1484644070.59,37390,4.94,73252.3,-13.67,-26.29,-27.19,0,*6F
1484644071.86,37391,4.94,73254.5,-13.67,-26.33,-27.29,0,*66
1484644073.13,37392,4.94,73256.8,-13.67,-26.29,-27.29,0,*6E
1484644074.42,37393,4.94,73256.8,-13.67,-26.17,-27.19,0,*61
1484644075.69,37394,4.94,73256.5,-13.67,-26.45,-27.35,0,*6F
1484644076.95,37395,4.94,73258.5,-13.67,-26.45,-27.45,0,*69
1484644078.19,37396,4.94,73258.3,-13.67,-26.49,-27.51,0,*63
1484644079.44,37397,4.94,73258.8,-13.67,-26.65,-27.67,0,*69
1484644080.73,37398,4.94,73250.8,-13.67,-26.55,-27.61,0,*63
1484644081.99,37399,4.94,73250.0,-13.67,-26.45,-27.35,0,*62
1484644083.23,37400,4.94,73256.0,-13.67,-26.45,-27.51,0,*67
1484644084.48,37401,4.94,73252.3,-13.67,-26.49,-27.67,0,*6F
1484644085.72,37402,4.94,73252.8,-13.69,-26.81,-27.67,0,*66
1484644086.96,37403,4.94,73250.8,-13.69,-26.45,-27.45,0,*6F
1484644088.22,37404,4.94,73250.3,-13.69,-26.55,-27.61,0,*6F
1484644089.48,37405,4.94,73256.0,-13.71,-26.77,-27.71,0,*66
1484644090.75,37406,4.94,73258.3,-13.69,-26.29,-27.19,0,*69
1484644092.01,37407,4.94,73252.8,-13.71,-26.17,-27.07,0,*63
1484644093.31,37408,4.94,73250.8,-13.71,-26.33,-27.35,0,*6B
1484644094.56,37409,4.94,73254.8,-13.69,-26.33,-27.29,0,*6E
1484644095.8,37410,4.94,73256.3,-13.69,-26.45,-27.35,0,*6A
1484644097.03,37411,4.94,73260.3,-13.69,-26.13,-27.13,0,*6C
1484644098.27,37412,4.94,73262.5,-13.69,-26.17,-27.07,0,*6E
1484644099.54,37413,4.94,73262.0,-13.69,-25.97,-26.97,0,*6C
1484644100.78,37414,4.94,73256.3,-13.69,-25.87,-26.97,0,*6A
1484644102.02,37415,4.94,73256.3,-13.69,-25.87,-26.81,0,*6C
1484644103.26,37416,4.94,73256.5,-13.69,-26.17,-27.13,0,*6F